• In Germany
  • List of Countries
  • For 7 days
  • Water Temperature
  • Satellite Maps
  • Weather Map
  • Weather Widgets
  • user-avatar
    Login

    Hourly Weather Ischgl

    Today, 24 July, Monday

    Time Temperature Precipitation Wind Pressure Humidity
    00:00 +8°C° 0.6 mm 1 mps 576 mmHg 96%
    01:00 +8°C° 0 mm 1 mps 575 mmHg 96%
    02:00 +8°C° 1.1 mm 1 mps 575 mmHg 96%
    03:00 +7°C° 1.1 mm 1 mps 574 mmHg 96%
    04:00 +7°C° 1.1 mm 1 mps 573 mmHg 96%
    05:00 +7°C° 1.1 mm 1 mps 573 mmHg 95%
    06:00 +8°C° 1.1 mm 1 mps 573 mmHg 94%
    07:00 +8°C° 1.1 mm 1 mps 573 mmHg 93%
    08:00 +8°C° 1.6 mm 1 mps 573 mmHg 92%
    09:00 +8°C° 1.6 mm 1 mps 573 mmHg 91%
    10:00 +7°C° 1.6 mm 2 mps 572 mmHg 90%
    11:00 +6°C° 2.7 mm 2 mps 572 mmHg 91%
    12:00 +6°C° 2.7 mm 2 mps 572 mmHg 93%
    13:00 +6°C° 2.7 mm 2 mps 572 mmHg 94%
    14:00 +5°C° 3 mm 2 mps 572 mmHg 95%
    15:00 +5°C° 3 mm 2 mps 572 mmHg 96%
    16:00 +3°C° 3 mm 3 mps 571 mmHg 97%
    17:00 +3°C° 0.7 mm 3 mps 572 mmHg 96%
    18:00 +3°C° 0.7 mm 3 mps 572 mmHg 95%
    19:00 +3°C° 0.7 mm 3 mps 572 mmHg 95%
    20:00 +3°C° 0.1 mm 2 mps 572 mmHg 95%
    21:00 +3°C° 0.1 mm 2 mps 571 mmHg 95%
    22:00 +2°C° 0.1 mm 2 mps 571 mmHg 95%
    23:00 +2°C° 0.1 mm 2 mps 571 mmHg 95%

    Tomorrow, 25 July, Tuesday

    Time Temperature Precipitation Wind Pressure Humidity
    00:00 +1°C° 0.1 mm 2 mps 571 mmHg 95%
    01:00 +1°C° 0.1 mm 2 mps 571 mmHg 95%
    02:00 +1°C° 0.2 mm 2 mps 571 mmHg 95%
    03:00 +1°C° 0.2 mm 2 mps 571 mmHg 94%
    04:00 +1°C° 0.2 mm 2 mps 570 mmHg 93%
    05:00 +2°C° 0.2 mm 2 mps 571 mmHg 92%
    06:00 +2°C° 0.2 mm 2 mps 571 mmHg 90%
    07:00 +3°C° 0.2 mm 2 mps 571 mmHg 89%
    08:00 +3°C° 0.3 mm 2 mps 571 mmHg 85%
    09:00 +4°C° 0.3 mm 2 mps 572 mmHg 81%
    10:00 +5°C° 0.3 mm 2 mps 572 mmHg 77%
    11:00 +5°C° 0.5 mm 2 mps 572 mmHg 76%
    12:00 +6°C° 0.5 mm 2 mps 572 mmHg 76%
    13:00 +6°C° 0.5 mm 2 mps 572 mmHg 76%
    14:00 +6°C° 0.5 mm 2 mps 572 mmHg 73%
    15:00 +7°C° 0.5 mm 3 mps 572 mmHg 69%
    16:00 +7°C° 0.5 mm 3 mps 572 mmHg 66%
    17:00 +5°C° 0.3 mm 3 mps 572 mmHg 71%
    18:00 +5°C° 0.3 mm 2 mps 572 mmHg 75%
    19:00 +4°C° 0.3 mm 2 mps 571 mmHg 80%
    20:00 +3°C° 0.1 mm 2 mps 571 mmHg 84%
    21:00 +3°C° 0.1 mm 2 mps 571 mmHg 87%
    22:00 +2°C° 0.1 mm 2 mps 570 mmHg 91%
    23:00 +1°C° 0 mm 2 mps 570 mmHg 92%

    Day after tomorrow, 26 July, Wednesday

    Time Temperature Precipitation Wind Pressure Humidity
    00:00 +1°C° 0 mm 2 mps 570 mmHg 92%
    01:00 -1°C° 0 mm 2 mps 569 mmHg 92%
    02:00 -1°C° 0 mm 2 mps 569 mmHg 91%
    03:00 -1°C° 0 mm 2 mps 569 mmHg 90%
    04:00 -1°C° 0 mm 2 mps 569 mmHg 88%
    05:00 +1°C° 0.5 mm 2 mps 569 mmHg 87%
    06:00 +1°C° 0.5 mm 2 mps 570 mmHg 86%
    07:00 +2°C° 0.5 mm 2 mps 570 mmHg 85%
    08:00 +3°C° 0.5 mm 2 mps 570 mmHg 83%
    09:00 +4°C° 0.5 mm 2 mps 571 mmHg 81%
    10:00 +5°C° 0.5 mm 2 mps 571 mmHg 79%
    11:00 +5°C° 0.6 mm 2 mps 572 mmHg 78%
    12:00 +5°C° 0.6 mm 2 mps 572 mmHg 77%
    13:00 +5°C° 0.6 mm 3 mps 572 mmHg 76%
    14:00 +6°C° 0.6 mm 2 mps 572 mmHg 77%
    15:00 +5°C° 0.6 mm 2 mps 572 mmHg 78%
    16:00 +5°C° 0.6 mm 2 mps 572 mmHg 80%
    17:00 +5°C° 0.4 mm 2 mps 572 mmHg 82%
    18:00 +4°C° 0.4 mm 2 mps 572 mmHg 85%
    19:00 +4°C° 0.4 mm 2 mps 572 mmHg 87%
    20:00 +3°C° 0.2 mm 2 mps 572 mmHg 89%
    21:00 +3°C° 0.2 mm 2 mps 572 mmHg 91%
    22:00 +2°C° 0.2 mm 2 mps 572 mmHg 93%
    23:00 +2°C° 0.1 mm 2 mps 572 mmHg 94%

    27 July, Thursday

    Time Temperature Precipitation Wind Pressure Humidity
    00:00 +1°C° 0.1 mm 2 mps 572 mmHg 95%
    01:00 +1°C° 0.1 mm 2 mps 572 mmHg 95%
    02:00 +1°C° 0 mm 2 mps 572 mmHg 95%
    03:00 +1°C° 0 mm 2 mps 572 mmHg 94%
    04:00 -1°C° 0 mm 2 mps 571 mmHg 94%
    05:00 +1°C° 0 mm 2 mps 572 mmHg 89%
    06:00 +3°C° 0 mm 2 mps 573 mmHg 83%
    07:00 +4°C° 0 mm 2 mps 573 mmHg 78%
    08:00 +6°C° 0 mm 2 mps 574 mmHg 68%
    09:00 +8°C° 0 mm 2 mps 575 mmHg 58%
    10:00 +10°C° 0 mm 2 mps 576 mmHg 48%
    11:00 +11°C° 0 mm 1 mps 576 mmHg 52%
    12:00 +11°C° 0 mm 1 mps 576 mmHg 56%
    13:00 +11°C° 0 mm 1 mps 576 mmHg 60%
    14:00 +11°C° 0 mm 1 mps 576 mmHg 60%
    15:00 +12°C° 0 mm 2 mps 576 mmHg 60%
    16:00 +12°C° 0 mm 2 mps 576 mmHg 60%
    17:00 +10°C° 0 mm 2 mps 576 mmHg 66%
    18:00 +9°C° 0 mm 2 mps 576 mmHg 71%
    19:00 +9°C° 0 mm 2 mps 575 mmHg 77%
    20:00 +8°C° 0 mm 1 mps 575 mmHg 81%
    21:00 +6°C° 0 mm 1 mps 575 mmHg 86%
    22:00 +5°C° 0 mm 1 mps 574 mmHg 90%
    23:00 +4°C° 0 mm 1 mps 574 mmHg 89%

    28 July, Friday

    Time Temperature Precipitation Wind Pressure Humidity
    00:00 +4°C° 0 mm 1 mps 574 mmHg 89%
    01:00 +4°C° 0 mm 1 mps 574 mmHg 88%
    02:00 +4°C° 0 mm 1 mps 574 mmHg 88%
    03:00 +3°C° 0 mm 1 mps 573 mmHg 88%
    04:00 +3°C° 0 mm 1 mps 573 mmHg 88%
    05:00 +5°C° 0 mm 1 mps 574 mmHg 84%
    06:00 +7°C° 0 mm 1 mps 575 mmHg 79%
    07:00 +8°C° 0 mm 1 mps 576 mmHg 75%
    08:00 +10°C° 0 mm 1 mps 577 mmHg 69%
    09:00 +12°C° 0 mm 2 mps 578 mmHg 62%
    10:00 +13°C° 0 mm 2 mps 579 mmHg 56%
    11:00 +14°C° 0.1 mm 2 mps 579 mmHg 55%
    12:00 +15°C° 0.1 mm 2 mps 580 mmHg 54%
    13:00 +15°C° 0.1 mm 2 mps 580 mmHg 53%
    14:00 +15°C° 0.2 mm 2 mps 580 mmHg 55%
    15:00 +15°C° 0.2 mm 2 mps 580 mmHg 57%
    16:00 +14°C° 0.2 mm 3 mps 580 mmHg 59%
    17:00 +13°C° 0.1 mm 2 mps 579 mmHg 67%
    18:00 +12°C° 0.1 mm 2 mps 579 mmHg 74%
    19:00 +10°C° 0.1 mm 2 mps 579 mmHg 82%
    20:00 +9°C° 0 mm 2 mps 578 mmHg 86%
    21:00 +8°C° 0 mm 1 mps 578 mmHg 90%
    22:00 +7°C° 0 mm 1 mps 578 mmHg 95%
    23:00 +6°C° 0 mm 1 mps 578 mmHg 95%

    29 July, Saturday

    Time Temperature Precipitation Wind Pressure Humidity
    00:00 +6°C° 0 mm 1 mps 577 mmHg 94%
    01:00 +5°C° 0 mm 1 mps 577 mmHg 94%
    02:00 +5°C° 0 mm 1 mps 577 mmHg 93%
    03:00 +5°C° 0 mm 1 mps 577 mmHg 91%
    04:00 +5°C° 0 mm 1 mps 577 mmHg 90%
    05:00 +7°C° 0 mm 1 mps 578 mmHg 84%
    06:00 +8°C° 0 mm 1 mps 579 mmHg 79%
    07:00 +10°C° 0 mm 1 mps 580 mmHg 74%
    08:00 +12°C° 0 mm 1 mps 580 mmHg 68%
    09:00 +14°C° 0 mm 1 mps 581 mmHg 62%
    10:00 +15°C° 0 mm 1 mps 582 mmHg 56%
    11:00 +16°C° 0.1 mm 1 mps 582 mmHg 56%
    12:00 +16°C° 0.1 mm 1 mps 582 mmHg 56%
    13:00 +17°C° 0.1 mm 2 mps 582 mmHg 56%
    14:00 +16°C° 0.9 mm 2 mps 582 mmHg 61%
    15:00 +16°C° 0.9 mm 2 mps 582 mmHg 66%
    16:00 +15°C° 0.9 mm 2 mps 581 mmHg 71%
    17:00 +14°C° 1.6 mm 1 mps 581 mmHg 78%
    18:00 +13°C° 1.6 mm 1 mps 580 mmHg 85%
    19:00 +11°C° 1.6 mm 1 mps 580 mmHg 91%
    20:00 +11°C° 1.4 mm 1 mps 580 mmHg 92%
    21:00 +10°C° 1.4 mm 1 mps 580 mmHg 93%
    22:00 +8°C° 1.4 mm 0 mps 580 mmHg 94%
    23:00 +9°C° 0.8 mm 1 mps 580 mmHg 94%
    Show more